Lake Martin Weather Center

Moon Phase Calendar



Lake Martin Water Level
Online Cameras

 


      

Current Conditions in Dadeville
5/12/2021 6:44:57 AM

61°F
Feels Like 61
Rain
Humidity
100%
Pressure
30.12"
Wind
5.2 mph (NE)
Dew Point
61°F
UV Index
0/10 (Low)
Visibility
6 mi

Hourly Forecast

Date & Time Wed, May 12
6:00 AM
Wed, May 12
7:00 AM
Wed, May 12
8:00 AM
Wed, May 12
9:00 AM
Wed, May 12
10:00 AM
Wed, May 12
11:00 AM
Wed, May 12
12:00 PM
Wed, May 12
1:00 PM
Wed, May 12
2:00 PM
Wed, May 12
3:00 PM
Wed, May 12
4:00 PM
Wed, May 12
5:00 PM
Wed, May 12
6:00 PM
Wed, May 12
7:00 PM
Wed, May 12
8:00 PM
Wed, May 12
9:00 PM
Wed, May 12
10:00 PM
Wed, May 12
11:00 PM
Thu, May 13
12:00 AM
Thu, May 13
1:00 AM
Thu, May 13
2:00 AM
Thu, May 13
3:00 AM
Thu, May 13
4:00 AM
Thu, May 13
5:00 AM
Thu, May 13
6:00 AM
Thu, May 13
7:00 AM
Thu, May 13
8:00 AM
Thu, May 13
9:00 AM
Thu, May 13
10:00 AM
Thu, May 13
11:00 AM
Thu, May 13
12:00 PM
Thu, May 13
1:00 PM
Thu, May 13
2:00 PM
Thu, May 13
3:00 PM
Thu, May 13
4:00 PM
Thu, May 13
5:00 PM
Thu, May 13
6:00 PM
Thu, May 13
7:00 PM
Thu, May 13
8:00 PM
Thu, May 13
9:00 PM
Thu, May 13
10:00 PM
Thu, May 13
11:00 PM
Fri, May 14
12:00 AM
Fri, May 14
1:00 AM
Fri, May 14
2:00 AM
Fri, May 14
3:00 AM
Fri, May 14
4:00 AM
Fri, May 14
5:00 AM
Condition
Rain

Rain

Rain

Clouds

Clouds

Clouds

Clouds

Clouds

Clouds

Clouds

Clouds

Clouds

Clouds

Clouds

Clouds

Clouds

Clouds

Clouds

Clouds

Clouds

Clouds

Clouds

Clouds

Clouds

Clouds

Clouds

Clouds

Clouds

Clouds

Clouds

Clouds

Clouds

Clouds

Clouds

Clouds

Clouds

Clouds

Clouds

Clouds

Clouds

Clouds

Clouds

Clouds

Clouds

Clouds

Clouds

Clouds

Clouds
Temperature 61°F61°F61°F60°F61°F61°F65°F66°F67°F66°F62°F59°F57°F55°F54°F53°F53°F52°F52°F51°F50°F49°F48°F48°F47°F50°F54°F58°F61°F63°F66°F68°F70°F71°F71°F69°F65°F63°F61°F60°F59°F58°F57°F56°F55°F51°F50°F49°F
Feels Like 61°F61°F61°F61°F61°F62°F65°F66°F67°F66°F62°F58°F56°F54°F53°F52°F52°F51°F51°F50°F47°F46°F45°F45°F44°F47°F53°F57°F60°F62°F64°F67°F69°F70°F69°F68°F64°F62°F60°F59°F58°F57°F55°F54°F53°F50°F49°F47°F
Cloudiness 92%90%92%94%96%98%100%100%100%100%100%100%100%100%100%100%100%100%100%100%40%38%40%35%31%29%43%53%58%62%67%69%69%64%67%75%80%83%100%100%100%100%99%97%80%45%30%23%
Visibility 2 mi4 mi6 mi6 mi6 mi6 mi6 mi6 mi6 mi6 mi6 mi6 mi6 mi6 mi6 mi6 mi6 mi6 mi6 mi6 mi6 mi6 mi6 mi6 mi6 mi6 mi6 mi6 mi6 mi6 mi6 mi6 mi6 mi6 mi6 mi6 mi6 mi6 mi6 mi6 mi6 mi6 mi6 mi6 mi6 mi6 mi6 mi6 mi
Precipitation 100%100%89%73%72%85%76%70%1%4%6%3%0%0%0%0%0%0%0%0%0%0%0%0%0%0%0%0%0%0%0%0%0%0%0%0%0%0%0%0%0%0%0%0%0%0%0%0%
Humidity 99%100%99%99%97%95%86%80%76%74%81%84%84%84%83%83%82%82%81%82%85%86%85%85%87%79%69%62%58%55%52%49%47%45%45%52%63%65%64%64%65%67%70%73%75%84%87%88%
Dew Point 61°F61°F60°F60°F60°F60°F60°F59°F59°F58°F56°F54°F52°F50°F49°F48°F47°F47°F46°F46°F45°F45°F44°F43°F43°F43°F44°F45°F46°F47°F47°F48°F49°F49°F48°F50°F52°F51°F49°F48°F47°F47°F47°F47°F47°F46°F46°F45°F
Pressure 30.12"30.12"30.12"30.12"30.12"30.12"30.15"30.12"30.12"30.12"30.12"30.15"30.18"30.21"30.21"30.24"30.24"30.24"30.24"30.24"30.21"30.21"30.21"30.24"30.24"30.27"30.27"30.27"30.27"30.27"30.24"30.24"30.21"30.18"30.18"30.18"30.18"30.21"30.21"30.21"30.24"30.24"30.24"30.24"30.24"30.24"30.24"30.24"
Wind Speed 3.8 mph5.2 mph5.3 mph4.2 mph5.8 mph7 mph7.5 mph8.3 mph7.7 mph9.4 mph10.3 mph10.2 mph10.1 mph9.8 mph9.8 mph9.4 mph9 mph8.1 mph7.1 mph6.3 mph5.6 mph6.5 mph7 mph6.2 mph5.3 mph6.4 mph7.6 mph7.9 mph8.1 mph7.4 mph6.5 mph5.5 mph4.8 mph4.8 mph4.8 mph4.7 mph4.8 mph5.4 mph5.3 mph4.9 mph4.8 mph4.9 mph4.7 mph4.2 mph3.7 mph3.8 mph3.8 mph4.2 mph
Wind
Direction
53°
NE
39°
NE
32°
NNE
34°
NE
18°
NNE
25°
NNE
13°
NNE
25°
NNE
22°
NNE
31°
NNE
42°
NE
47°
NE
47°
NE
51°
NE
55°
NE
57°
ENE
66°
ENE
69°
ENE
70°
ENE
66°
ENE
53°
NE
52°
NE
54°
NE
58°
ENE
54°
NE
51°
NE
68°
ENE
75°
ENE
79°
E
79°
E
77°
ENE
70°
ENE
55°
NE
42°
NE
33°
NNE
21°
NNE
17°
NNE
28°
NNE
37°
NE
40°
NE
42°
NE
50°
NE
53°
NE
64°
ENE
54°
NE
37°
NE
39°
NE
42°
NE

Daily Forecast

Date High Low Precip. Humidity
Today
May 12

Rain
67 °F
52 °F
100%
86%
Thursday
May 13

Clouds
71 °F
47 °F
0%
52%
Friday
May 14

Clear
76 °F
50 °F
0%
38%
Saturday
May 15

Clear
78 °F
52 °F
0%
39%
Sunday
May 16

Clouds
81 °F
56 °F
0%
38%
Monday
May 17

Clouds
83 °F
58 °F
9%
42%
Tuesday
May 18

Rain
83 °F
62 °F
77%
44%
Wednesday
May 19

Rain
87 °F
64 °F
76%
38%
Thursday
May 20

Rain
87 °F
66 °F
83%
49%
Friday
May 21

Rain
88 °F
66 °F
73%
44%
Saturday
May 22

Rain
87 °F
66 °F
100%
48%
Sunday
May 23

Rain
81 °F
65 °F
100%
86%
Monday
May 24

Rain
87 °F
66 °F
99%
49%
Tuesday
May 25

Rain
74 °F
64 °F
84%
78%
Wednesday
May 26

Rain
71 °F
61 °F
100%
97%
Thursday
May 27

Rain
80 °F
67 °F
63%
69%

Temperature 8-14 Day Outlook



Precipitation 8-14 Day Outlook






About Us
Contact Us
Site Map
Search Site
Advertise With Us
   
www.LakeMartin.com
THE LAKE MARTIN WEBSITE

Copyright 2021, Lakes Online
Privacy    |    Legal